{"data":{"norad_id":54800,"intl_designator":"2022-175AU","name":"STARLINK-5428","alt_names":[],"object_type":"PAYLOAD","status":"ACTIVE","operator":null,"country":"US","launch_date":"2022-12-17","launch_site_code":"AFETR","launch_vehicle":null,"mission":null,"orbit_class":"UNKNOWN","rcs_meters":null,"size_class":null,"mass_kg":null,"dimensions":null,"purposes":["comms"],"wikipedia_slug":null,"has_3d_model":false,"image_url":null,"decayed_at":null,"tle_current":{"epoch":"2026-09-20T12:32:34.131264Z","epoch_age_seconds":91388,"freshness":"FRESH","line1":"1 54800U 22175AU  26263.52261726  .00000883  00000+0  40208-4 0  9990","line2":"2 54800  53.1597 231.7077 0001554  83.6227 276.4951 15.31711378209573","mean_motion":15.31711378,"eccentricity":0.0001554,"inclination_deg":53.1597,"raan_deg":231.7077,"arg_perigee_deg":83.6227,"mean_anomaly_deg":276.4951,"bstar":4.0208e-5,"rev_number":20957,"period_min":94.012489603639,"perigee_km":469.64176799531,"apogee_km":471.77038842402,"semimajor_km":6848.8430782097,"source":"CELESTRAK","updated_at":"2026-09-21T09:00:33.129133Z"}}}